{"data":{"norad_id":69099,"intl_designator":"2026-106C","name":"2026-106C","alt_names":[],"object_type":"PAYLOAD","status":"ACTIVE","operator":null,"country":"PRC","launch_date":"2026-05-15","launch_site_code":"JSC","launch_vehicle":null,"mission":null,"orbit_class":"UNKNOWN","rcs_meters":null,"size_class":null,"mass_kg":null,"dimensions":null,"purposes":[],"wikipedia_slug":null,"has_3d_model":false,"image_url":null,"decayed_at":null,"tle_current":{"epoch":"2026-09-20T04:41:41.064288Z","epoch_age_seconds":49576,"freshness":"FRESH","line1":"1 69099U 26106C   26263.19561417  .00003741  00000+0  22063-3 0  9991","line2":"2 69099  97.5568 343.6520 0013172 192.9845 167.1048 15.12111734 19339","mean_motion":15.12111734,"eccentricity":0.0013172,"inclination_deg":97.5568,"raan_deg":343.652,"arg_perigee_deg":192.9845,"mean_anomaly_deg":167.1048,"bstar":0.00022063,"rev_number":1933,"period_min":95.231057839275,"perigee_km":520.66195943941,"apogee_km":538.86012604321,"semimajor_km":6907.8980427413,"source":"CELESTRAK","updated_at":"2026-09-20T09:00:24.675850Z"}}}